Location: Unspecified
(0.0000°N, 0.0000°E)
Time: 13:16:07
(UTC+00:00)

FREGAT DEB - Visible Passes

Search period start: 15 May 2026 00:00
Search period end: 25 May 2026 00:00
Orbit: 536 x 3235 km, 51.4° (Epoch: 15 May)

Date Brightness Start Highest point End Pass type
(mag) Time Alt. Az. Time Alt. Az. Time Alt. Az.
15 May ? 02:35:35 10° N 02:50:26 34° NE 03:06:28 10° ESE visible
15 May ? 04:45:07 10° NW 05:03:46 79° WSW 05:21:27 10° SSE visible
16 May ? 01:26:45 10° NNE 01:35:55 16° NE 01:45:54 10° E visible
16 May ? 03:31:55 10° NNW 03:49:35 67° ENE 04:07:50 10° SE visible
17 May ? 02:20:10 10° N 02:35:25 39° ENE 02:52:15 10° ESE visible
17 May ? 04:30:17 10° NW 04:48:37 71° WSW 05:06:25 10° SSE visible
18 May ? 01:10:34 10° NNE 01:21:08 20° NE 01:32:55 10° E visible
18 May ? 03:16:50 10° NNW 03:34:26 74° ENE 03:53:02 10° SE visible
18 May ? 05:31:15 10° WNW 05:47:44 37° SW 06:02:59 10° S visible
19 May ? 02:04:50 10° N 02:20:20 44° ENE 02:37:51 10° ESE visible
19 May ? 04:15:31 10° NW 04:33:28 64° WSW 04:51:17 10° SSE visible
20 May ? 00:54:40 10° N 01:06:14 23° NE 01:19:29 10° E visible
20 May ? 03:01:48 10° NNW 03:19:15 82° ENE 03:38:08 10° SE visible
20 May ? 05:17:04 10° WNW 05:32:43 32° SW 05:47:29 10° S visible
21 May ? 01:49:34 10° NNW 02:05:11 50° ENE 02:23:17 10° SE visible
21 May ? 04:00:48 10° NW 04:18:19 57° SW 04:36:03 10° SSE visible
22 May ? 00:38:58 10° N 00:51:14 27° ENE 01:05:41 10° ESE visible
22 May ? 02:46:49 10° NW 03:04:02 90° SW 03:23:07 10° SE visible
22 May ? 05:03:02 10° WNW 05:17:44 28° SW 05:31:51 10° S visible
22 May ? 23:34:52 10° NE 23:36:59 10° NE 23:39:10 10° ENE visible
23 May ? 01:34:21 10° NNW 01:50:00 56° ENE 02:08:34 10° SE visible
23 May ? 03:46:11 10° NW 04:03:11 51° SW 04:20:44 10° SSE visible
24 May ? 00:23:24 10° N 00:36:10 31° ENE 00:51:37 10° ESE visible
24 May ? 02:31:53 10° NW 02:48:50 82° WSW 03:08:00 10° SSE visible
24 May ? 04:49:13 10° W 05:02:48 24° SW 05:16:04 10° S visible
24 May ? 23:16:06 10° NNE 23:22:11 13° NE 23:23:12 13° ENE visible
